Flag for Canada Weather past 2 weeks in Inuvik, Northwest Territories, Canada

Now
12 °F

Sunny.


Feels Like: 2 °F
Forecast: -3 / 15 °F
Wind: 7 mph from South

Location: Inuvik

Current Time: Apr 1, 2015 at 3:39:20 PM

Latest Report: Apr 1, 2015 at 3:00 PM


Visibility: 15 mi

Pressure: 30.22 "Hg

Humidity: 52%

Dew point: -2 °F

Location of InuvikLocation

Historic Weather in Inuvik — Graph

°F

Inuvik temperature yesterday

Maximum temperature yesterday: 7 °F (at 6:00 PM)
Minimum temperature yesterday: -9 °F (at 8:00 AM)
Average temperature yesterday: 0 °F

Past Weeks' High & Low Weather Summary

 TemperatureHumidityPressure
High25 °F (Mar 25, 8:00 PM)85% (Mar 18, 8:00 AM)30.31 "Hg (Mar 18, 8:00 AM)
Low-9 °F (Mar 23, 9:00 AM)45% (Mar 19, 5:00 PM)29.50 "Hg (Mar 26, 9:00 PM)
Average6 °F69%30.03 "Hg
* Reported Mar 17 2:00 PM — Apr 1 2:00 PM, Inuvik, Weather by CustomWeather, © 2015

Note: Actual official high and low records may vary slightly from our data, if they occured in-between our weather recording intervals... More about our weather records

Advertising

Inuvik weather history for previous 24 hours

 ConditionsComfort  
Time TempWeatherWind HumidityBarometerVisibility
2:00 PM
Wed, Apr 1
10 °FSunny.8 mph52%30.22 "Hg15 mi
1:00 PM7 °FSunny.12 mph56%30.21 "Hg15 mi
12:00 PM5 °FSunny.12 mph55%30.20 "Hg15 mi
11:00 AM1 °FClear.8 mph60%30.20 "Hg15 mi
10:00 AM0 °FClear.7 mph54%30.20 "Hg15 mi
9:00 AM-4 °FClear.9 mph65%30.20 "Hg15 mi
8:00 AM-4 °FClear.9 mph65%30.20 "Hg15 mi
7:00 AM-4 °FPassing clouds.8 mph65%30.19 "Hg15 mi
6:00 AM-2 °FPassing clouds.9 mph59%30.19 "Hg15 mi
5:00 AM-4 °FPassing clouds.10 mph65%30.18 "Hg15 mi
4:00 AM-4 °FPassing clouds.9 mph59%30.18 "Hg15 mi
3:00 AM0 °FPassing clouds.12 mph54%30.17 "Hg15 mi
2:00 AM0 °FPassing clouds.9 mph54%30.17 "Hg15 mi
1:00 AM0 °FPassing clouds.8 mph60%30.16 "Hg15 mi
12:00 AM1 °FFrigid.7 mph55%30.16 "Hg15 mi
11:00 PM
Tue, Mar 31
1 °FScattered clouds.10 mph60%30.15 "Hg15 mi
10:00 PM3 °FPassing clouds.12 mph55%30.14 "Hg15 mi
9:00 PM5 °FScattered clouds.12 mph51%30.14 "Hg15 mi
8:00 PM7 °FScattered clouds.9 mph47%30.13 "Hg15 mi
7:00 PM7 °FPassing clouds.10 mph47%30.13 "Hg15 mi
6:00 PM7 °FPassing clouds.10 mph47%30.13 "Hg15 mi
5:00 PM5 °FPassing clouds.10 mph51%30.14 "Hg15 mi
4:00 PM5 °FPassing clouds.12 mph51%30.13 "Hg15 mi
3:00 PM3 °FPassing clouds.12 mph50%30.13 "Hg15 mi
Weather by CustomWeather, © 2015

See weather overviewHow to use our weather pages